Flag for Bahrain Weather past 2 weeks in Manama, Bahrain

Now
100 °F

Sunny.


Feels Like: 117 °F
Forecast: 94 / 106 °F
Wind: 3 mph from Southeast

Location: Bahrain International Airport

Current Time: Jul 31, 2015 at 6:26:24 PM

Latest Report: Jul 31, 2015 at 6:00 PM


Visibility: 10 mi

Pressure: 29.42 "Hg

Humidity: 47%

Dew point: 77 °F

Historic Weather in Manama — Graph

°F

Manama temperature yesterday

Maximum temperature yesterday: 102 °F (at 1:00 AM)
Minimum temperature yesterday: 97 °F (at 7:00 PM)
Average temperature yesterday: 100 °F

Past Weeks' High & Low Weather Summary

 TemperatureHumidityPressure
High113 °F (Jul 29, 12:00 PM)84% (Jul 22, 8:00 PM)29.56 "Hg (Jul 22, 8:00 PM)
Low90 °F (Jul 23, 6:00 AM)8% (Jul 19, 1:00 PM)29.33 "Hg (Jul 17, 5:00 PM)
Average98 °F47%29.44 "Hg
* Reported Jul 16 5:00 PM — Jul 31 5:00 PM, Manama, Weather by CustomWeather, © 2015

Note: Actual official high and low records may vary slightly from our data, if they occured in-between our weather recording intervals... More about our weather records

Advertising

Manama weather history for previous 24 hours

 ConditionsComfort  
Time TempWeatherWind HumidityBarometerVisibility
5:00 PM
Fri, Jul 31
102 °FSunny.6 mph42%29.45 "Hg10 mi
4:00 PM100 °FSunny.10 mph50%29.45 "Hg6 mi
3:00 PM102 °FSunny.12 mph57%29.45 "Hg6 mi
2:00 PM102 °FClear.13 mph45%29.47 "Hg6 mi
1:00 PM106 °FClear.8 mph40%29.47 "Hg6 mi
12:00 PM109 °FClear.5 mph27%29.47 "Hg6 mi
11:00 AM108 °FPassing clouds.6 mph30%29.47 "HgN/A
10:00 AM106 °FPassing clouds.7 mph32%29.50 "HgN/A
9:00 AM104 °FPassing clouds.6 mph40%29.50 "HgN/A
8:00 AM100 °FSunny.10 mph45%29.47 "Hg10 mi
7:00 AM97 °FSunny.8 mph60%29.47 "Hg10 mi
6:00 AM95 °FPassing clouds.6 mph67%29.47 "HgN/A
5:00 AM93 °FClear.6 mph80%29.45 "Hg5 mi
4:00 AM93 °FPassing clouds.3 mph80%29.45 "HgN/A
3:00 AM93 °FClear.No wind75%29.45 "Hg10 mi
2:00 AM95 °FPassing clouds.7 mph63%29.45 "HgN/A
1:00 AM97 °FClear.2 mph56%29.42 "Hg10 mi
12:00 AM97 °FClear.8 mph60%29.42 "Hg10 mi
11:00 PM
Thu, Jul 30
99 °FPassing clouds.5 mph50%29.45 "HgN/A
10:00 PM99 °FClear.6 mph47%29.45 "Hg10 mi
9:00 PM97 °FClear.7 mph47%29.45 "Hg6 mi
8:00 PM97 °FClear.9 mph63%29.42 "Hg6 mi
7:00 PM97 °FClear.9 mph63%29.42 "Hg6 mi
6:00 PM99 °FSunny.10 mph57%29.42 "Hg6 mi
Weather by CustomWeather, © 2015

See weather overviewHow to use our weather pages